CZ-4C DEB, 43601

Orbit data source: Space-Track

CZ-4C DEB, 43601 is space debris in SSO originally from a launch on Tue, 09 Aug 2016 UTC launched from the Taiyaun Space Center, China (TSC). Debris objects in space refer to the collection of defunct objects orbiting the Earth. Examples of debris include non-operational satellites, rocket bodies, and fragments generated from explosions, collisions, or faulty payload assembly.

Loading next visibility...
Identifier
43601, 2016-049F
Orbit
SSO
Country
Flag of CNCN / PRC
Related business
Manufacturer
Unknown
Mission
Spacecraft
Bus & Motor
Unknown
Mass
Unknown
Launch date (UTC)
2016-08-09 (9 years ago)
Launch vehicle
Unknown
Launch site
Taiyaun Space Center, China (TSC)
Object type
Payload
Rocket body
Debris
Shape & HBR
Unknown shape, 0.1 m
Radar Cross Section
Small (<0.1 m²)

Expand to show TLE details & history
Last TLE update: 14 hours ago

TLE from 14 hours ago
0 CZ-4C DEB
1 43601U 16049F   25296.09301235  .00023664  00000-0  21879-2 0  9991
2 43601  98.3167  58.7947 0074940 254.3145 104.9795 14.92418583597166
Epoch: 2025-10-23T02:13Z
TLE epoch observation values (Epoch: 2025-10-23T02:13:56.267Z)
Latitude
-0.00007°
Longitude
-6.44696°
Altitude
607.287 km
Speed
7.548 km/s
True Right ascension
03h 55m 10s
True Declination
0° 00' 00"
Sunlit
Object was in full shadow at epoch
Visualization orbit readout
Latitude
Unknown
Longitude
Unknown
Altitude
Unknown
Speed
Unknown
Apparent Right ascension
Unknown
Apparent Declination
Unknown
Sunlit
N/A
Visualization observer readout
Local Sidereal Time
10:54:34
Azimuth
Unknown
Elevation
Unknown
Doppler factor
Unknown
Orbital elements
Apogee altitude
639.64 km
Perigee altitude
535.24 km
Semi-major axis
6,965.577 km
Eccentricity
0.00749
Inclination
98.3167°
RAAN
58.7947°
Arg. of periapsis
254.3145°
True anomaly
105.80703°
Mean anomaly
104.9795°
Eccentric anomaly
105.39347°
Mean motion
3.73343 °/min
Orbital period
96.43 mins
BSTAR
0.0021879
Loading maneuver chart data...
Computing Atmospheric mass density...
Loading historical data...
Loading historical data...
Loading historical data...
Loading historical data...
Loading historical data...
Loading historical data...
Loading historical data...
Other satellites on launch #49 in the year 2016 (2016-08-09 UTC)

Documentation

Showing up to 5 results
|